TimeEST,TemperatureF,Dew PointF,Humidity,Sea Level PressureIn,VisibilityMPH,Wind Direction,Wind SpeedMPH,Gust SpeedMPH,PrecipitationIn,Events,Conditions,WindDirDegrees,DateUTC
12:15 AM,60.8,50.0,68,30.05,10.0,NW,9.2,16.1,N/A,,Clear,320,2012-11-22 05:15:00
12:35 AM,59.0,48.2,67,30.05,10.0,NW,11.5,-,N/A,,Clear,320,2012-11-22 05:35:00
12:55 AM,59.0,46.4,63,30.05,10.0,NW,11.5,16.1,N/A,,Clear,320,2012-11-22 05:55:00
1:15 AM,59.0,46.4,63,30.04,10.0,NW,8.1,-,N/A,,Clear,320,2012-11-22 06:15:00
1:35 AM,59.0,46.4,63,30.04,10.0,NW,9.2,-,N/A,,Clear,320,2012-11-22 06:35:00
1:55 AM,59.0,48.2,67,30.04,10.0,NW,10.4,-,N/A,,Clear,310,2012-11-22 06:55:00
2:15 AM,59.0,48.2,67,30.03,10.0,NW,10.4,16.1,N/A,,Clear,320,2012-11-22 07:15:00
2:35 AM,59.0,50.0,72,30.03,10.0,NW,9.2,-,N/A,,Clear,310,2012-11-22 07:35:00
2:55 AM,57.2,50.0,77,30.02,10.0,NW,9.2,17.3,N/A,,Clear,310,2012-11-22 07:55:00
3:15 AM,57.2,50.0,77,30.02,10.0,NW,10.4,-,N/A,,Clear,320,2012-11-22 08:15:00
3:35 AM,57.2,50.0,77,30.02,10.0,NW,9.2,-,N/A,,Clear,310,2012-11-22 08:35:00
3:55 AM,55.4,50.0,82,30.02,10.0,NW,10.4,-,N/A,,Clear,310,2012-11-22 08:55:00
4:15 AM,55.4,50.0,82,30.02,10.0,NW,12.7,18.4,N/A,,Clear,320,2012-11-22 09:15:00
4:35 AM,55.4,50.0,82,30.03,10.0,NW,9.2,-,N/A,,Clear,310,2012-11-22 09:35:00
4:55 AM,55.4,50.0,82,30.03,10.0,NW,10.4,-,N/A,,Clear,320,2012-11-22 09:55:00
5:15 AM,55.4,50.0,82,30.03,10.0,NW,9.2,-,N/A,,Clear,310,2012-11-22 10:15:00
6:47 AM,55.4,50.0,82,30.05,10.0,WNW,9.2,-,N/A,,Clear,300,2012-11-22 11:47:00
7:47 AM,57.2,50.0,77,30.07,7.0,NNW,13.8,19.6,N/A,,Clear,330,2012-11-22 12:47:00
8:47 AM,62.6,51.8,68,30.08,7.0,NW,10.4,20.7,N/A,,Clear,310,2012-11-22 13:47:00
10:47 AM,68.0,50.0,52,30.10,7.0,NNW,11.5,20.7,N/A,,Clear,340,2012-11-22 15:47:00
11:47 AM,71.6,50.0,46,30.07,7.0,North,18.4,27.6,N/A,,Clear,350,2012-11-22 16:47:00
12:47 PM,71.6,50.0,46,30.06,7.0,North,15.0,24.2,N/A,,Partly Cloudy,350,2012-11-22 17:47:00
1:47 PM,69.8,50.0,49,30.05,7.0,North,18.4,26.5,N/A,,Partly Cloudy,360,2012-11-22 18:47:00
2:47 PM,68.0,50.0,52,30.06,7.0,North,19.6,26.5,N/A,,Partly Cloudy,350,2012-11-22 19:47:00
3:47 PM,68.0,48.2,49,30.06,7.0,North,15.0,23.0,N/A,,Partly Cloudy,360,2012-11-22 20:47:00
4:47 PM,66.2,48.2,52,30.08,7.0,NNW,13.8,23.0,N/A,,Clear,340,2012-11-22 21:47:00
5:55 PM,64.4,48.2,56,30.09,10.0,NNW,11.5,16.1,N/A,,Clear,340,2012-11-22 22:55:00
7:15 PM,60.8,46.4,59,30.12,10.0,NW,12.7,19.6,N/A,,Clear,320,2012-11-23 00:15:00
7:35 PM,60.8,46.4,59,30.12,10.0,NW,9.2,-,N/A,,Clear,310,2012-11-23 00:35:00
7:55 PM,60.8,46.4,59,30.13,10.0,NW,10.4,-,N/A,,Clear,320,2012-11-23 00:55:00
8:15 PM,59.0,46.4,63,30.14,10.0,NW,9.2,17.3,N/A,,Clear,320,2012-11-23 01:15:00
8:35 PM,59.0,46.4,63,30.14,10.0,NW,11.5,18.4,N/A,,Clear,320,2012-11-23 01:35:00
8:55 PM,59.0,46.4,63,30.14,10.0,NW,10.4,17.3,N/A,,Clear,310,2012-11-23 01:55:00
9:15 PM,59.0,44.6,59,30.14,10.0,NW,10.4,19.6,N/A,,Clear,310,2012-11-23 02:15:00
9:35 PM,59.0,44.6,59,30.14,10.0,NW,10.4,16.1,N/A,,Clear,320,2012-11-23 02:35:00
9:55 PM,59.0,46.4,63,30.15,10.0,NW,11.5,19.6,N/A,,Clear,320,2012-11-23 02:55:00
10:15 PM,57.2,46.4,67,30.15,10.0,NW,9.2,18.4,N/A,,Clear,310,2012-11-23 03:15:00
10:35 PM,57.2,46.4,67,30.15,10.0,NW,12.7,17.3,N/A,,Clear,320,2012-11-23 03:35:00
10:55 PM,57.2,46.4,67,30.14,10.0,NW,11.5,16.1,N/A,,Clear,320,2012-11-23 03:55:00
11:15 PM,57.2,46.4,67,30.14,10.0,NW,11.5,17.3,N/A,,Clear,320,2012-11-23 04:15:00
11:35 PM,57.2,46.4,67,30.13,10.0,NW,10.4,19.6,N/A,,Clear,320,2012-11-23 04:35:00
11:55 PM,57.2,46.4,67,30.13,10.0,NNW,9.2,16.1,N/A,,Clear,330,2012-11-23 04:55:00